• In Uzbekistan
  • List of Countries
  • For 7 days
  • Water Temperature
  • Satellite Maps
  • Weather Map
  • Weather Widgets
  • user-avatar
    Login

    Hourly Weather Balasore

    Today, 12 December, Tuesday

    Time Temperature Precipitation Wind Pressure Humidity
    00:00 +24°C° 0 mm 2 mps 759 mmHg 79%
    01:00 +24°C° 0 mm 2 mps 759 mmHg 79%
    02:00 +24°C° 0 mm 2 mps 758 mmHg 79%
    03:00 +24°C° 0 mm 2 mps 758 mmHg 79%
    04:00 +23°C° 0 mm 2 mps 758 mmHg 79%
    05:00 +23°C° 0 mm 2 mps 759 mmHg 78%
    06:00 +22°C° 0 mm 1 mps 759 mmHg 82%
    07:00 +23°C° 0 mm 1 mps 759 mmHg 77%
    08:00 +25°C° 0 mm 1 mps 759 mmHg 72%
    09:00 +26°C° 0 mm 1 mps 760 mmHg 66%
    10:00 +27°C° 0 mm 1 mps 760 mmHg 61%
    11:00 +29°C° 0 mm 1 mps 759 mmHg 56%
    12:00 +30°C° 0 mm 1 mps 759 mmHg 50%
    13:00 +30°C° 0 mm 1 mps 759 mmHg 48%
    14:00 +31°C° 0 mm 1 mps 758 mmHg 46%
    15:00 +31°C° 0 mm 1 mps 758 mmHg 44%
    16:00 +30°C° 0 mm 1 mps 758 mmHg 49%
    17:00 +28°C° 0 mm 1 mps 758 mmHg 55%
    18:00 +27°C° 0 mm 2 mps 758 mmHg 60%
    19:00 +26°C° 0 mm 2 mps 758 mmHg 64%
    20:00 +26°C° 0 mm 2 mps 758 mmHg 67%
    21:00 +25°C° 0 mm 2 mps 759 mmHg 70%
    22:00 +25°C° 0 mm 2 mps 759 mmHg 72%
    23:00 +24°C° 0 mm 2 mps 759 mmHg 74%

    Tomorrow, 13 December, Wednesday

    Time Temperature Precipitation Wind Pressure Humidity
    00:00 +24°C° 0 mm 2 mps 759 mmHg 76%
    01:00 +24°C° 0 mm 2 mps 759 mmHg 78%
    02:00 +23°C° 0 mm 2 mps 759 mmHg 79%
    03:00 +23°C° 0 mm 2 mps 758 mmHg 81%
    04:00 +23°C° 0 mm 2 mps 758 mmHg 80%
    05:00 +23°C° 0 mm 2 mps 758 mmHg 79%
    06:00 +21°C° 0 mm 2 mps 759 mmHg 79%
    07:00 +24°C° 0 mm 2 mps 759 mmHg 72%
    08:00 +25°C° 0 mm 2 mps 760 mmHg 66%
    09:00 +26°C° 0 mm 2 mps 760 mmHg 60%
    10:00 +28°C° 0 mm 2 mps 760 mmHg 54%
    11:00 +29°C° 0 mm 2 mps 760 mmHg 48%
    12:00 +31°C° 0 mm 1 mps 759 mmHg 42%
    13:00 +31°C° 0 mm 1 mps 759 mmHg 40%
    14:00 +31°C° 0 mm 1 mps 758 mmHg 39%
    15:00 +32°C° 0 mm 1 mps 757 mmHg 37%
    16:00 +30°C° 0 mm 1 mps 758 mmHg 42%
    17:00 +28°C° 0 mm 1 mps 758 mmHg 48%
    18:00 +27°C° 0 mm 1 mps 758 mmHg 54%
    19:00 +26°C° 0 mm 1 mps 758 mmHg 56%
    20:00 +26°C° 0 mm 1 mps 759 mmHg 58%
    21:00 +25°C° 0 mm 1 mps 759 mmHg 60%
    22:00 +25°C° 0 mm 1 mps 759 mmHg 61%
    23:00 +24°C° 0 mm 1 mps 759 mmHg 62%

    Day after tomorrow, 14 December, Thursday

    Time Temperature Precipitation Wind Pressure Humidity
    00:00 +24°C° 0 mm 2 mps 759 mmHg 63%
    01:00 +24°C° 0 mm 2 mps 759 mmHg 63%
    02:00 +23°C° 0 mm 2 mps 759 mmHg 63%
    03:00 +23°C° 0 mm 2 mps 758 mmHg 63%
    04:00 +23°C° 0 mm 2 mps 759 mmHg 63%
    05:00 +21°C° 0 mm 2 mps 759 mmHg 62%
    06:00 +21°C° 0 mm 2 mps 759 mmHg 61%
    07:00 +24°C° 0 mm 2 mps 760 mmHg 58%
    08:00 +25°C° 0 mm 2 mps 760 mmHg 54%
    09:00 +26°C° 0 mm 2 mps 761 mmHg 50%
    10:00 +28°C° 0 mm 2 mps 761 mmHg 46%
    11:00 +29°C° 0 mm 3 mps 760 mmHg 41%
    12:00 +31°C° 0 mm 3 mps 760 mmHg 37%
    13:00 +31°C° 0 mm 2 mps 759 mmHg 36%
    14:00 +32°C° 0 mm 2 mps 759 mmHg 35%
    15:00 +32°C° 0 mm 2 mps 758 mmHg 34%
    16:00 +30°C° 0 mm 2 mps 758 mmHg 38%
    17:00 +28°C° 0 mm 1 mps 758 mmHg 43%
    18:00 +27°C° 0 mm 1 mps 759 mmHg 47%
    19:00 +26°C° 0 mm 1 mps 759 mmHg 49%
    20:00 +26°C° 0 mm 1 mps 760 mmHg 51%
    21:00 +25°C° 0 mm 1 mps 760 mmHg 52%
    22:00 +25°C° 0 mm 1 mps 760 mmHg 53%
    23:00 +24°C° 0 mm 2 mps 760 mmHg 54%

    15 December, Friday

    Time Temperature Precipitation Wind Pressure Humidity
    00:00 +24°C° 0 mm 2 mps 760 mmHg 56%
    01:00 +23°C° 0 mm 2 mps 760 mmHg 55%
    02:00 +23°C° 0 mm 2 mps 759 mmHg 54%
    03:00 +23°C° 0 mm 2 mps 759 mmHg 54%
    04:00 +21°C° 0 mm 2 mps 759 mmHg 54%
    05:00 +21°C° 0 mm 3 mps 759 mmHg 54%
    06:00 +21°C° 0 mm 3 mps 759 mmHg 54%
    07:00 +22°C° 0 mm 3 mps 760 mmHg 52%
    08:00 +24°C° 0 mm 3 mps 761 mmHg 49%
    09:00 +26°C° 0 mm 3 mps 761 mmHg 47%
    10:00 +27°C° 0 mm 3 mps 761 mmHg 42%
    11:00 +29°C° 0 mm 3 mps 761 mmHg 37%
    12:00 +30°C° 0 mm 4 mps 760 mmHg 32%
    13:00 +32°C° 0 mm 4 mps 760 mmHg 31%
    14:00 +32°C° 0 mm 4 mps 759 mmHg 30%
    15:00 +32°C° 0 mm 4 mps 758 mmHg 29%
    16:00 +30°C° 0 mm 3 mps 759 mmHg 33%
    17:00 +28°C° 0 mm 2 mps 759 mmHg 37%
    18:00 +26°C° 0 mm 2 mps 759 mmHg 41%
    19:00 +26°C° 0 mm 2 mps 760 mmHg 42%
    20:00 +25°C° 0 mm 2 mps 760 mmHg 43%
    21:00 +24°C° 0 mm 2 mps 761 mmHg 45%
    22:00 +24°C° 0 mm 2 mps 761 mmHg 46%
    23:00 +23°C° 0 mm 2 mps 761 mmHg 47%

    16 December, Saturday

    Time Temperature Precipitation Wind Pressure Humidity
    00:00 +22°C° 0 mm 3 mps 761 mmHg 48%
    01:00 +21°C° 0 mm 2 mps 761 mmHg 50%
    02:00 +21°C° 0 mm 2 mps 760 mmHg 51%
    03:00 +21°C° 0 mm 2 mps 760 mmHg 52%
    04:00 +20°C° 0 mm 2 mps 760 mmHg 53%
    05:00 +20°C° 0 mm 2 mps 760 mmHg 53%
    06:00 +20°C° 0 mm 3 mps 760 mmHg 54%
    07:00 +21°C° 0 mm 3 mps 761 mmHg 52%
    08:00 +24°C° 0 mm 3 mps 762 mmHg 49%
    09:00 +25°C° 0 mm 3 mps 762 mmHg 47%
    10:00 +27°C° 0 mm 4 mps 762 mmHg 41%
    11:00 +28°C° 0 mm 4 mps 762 mmHg 36%
    12:00 +30°C° 0 mm 5 mps 761 mmHg 30%
    13:00 +30°C° 0 mm 5 mps 760 mmHg 29%
    14:00 +32°C° 0 mm 5 mps 760 mmHg 28%
    15:00 +32°C° 0 mm 4 mps 759 mmHg 27%
    16:00 +29°C° 0 mm 4 mps 759 mmHg 30%
    17:00 +28°C° 0 mm 3 mps 760 mmHg 34%
    18:00 +26°C° 0 mm 2 mps 760 mmHg 37%
    19:00 +25°C° 0 mm 2 mps 760 mmHg 38%
    20:00 +24°C° 0 mm 2 mps 761 mmHg 39%
    21:00 +23°C° 0 mm 2 mps 761 mmHg 40%
    22:00 +23°C° 0 mm 2 mps 761 mmHg 41%
    23:00 +21°C° 0 mm 2 mps 761 mmHg 41%

    17 December, Sunday

    Time Temperature Precipitation Wind Pressure Humidity
    00:00 +21°C° 0 mm 2 mps 761 mmHg 42%
    01:00 +20°C° 0 mm 2 mps 761 mmHg 43%
    02:00 +20°C° 0 mm 3 mps 761 mmHg 44%
    03:00 +20°C° 0 mm 3 mps 760 mmHg 45%
    04:00 +19°C° 0 mm 3 mps 761 mmHg 47%
    05:00 +19°C° 0 mm 3 mps 761 mmHg 49%
    06:00 +18°C° 0 mm 3 mps 761 mmHg 51%
    07:00 +20°C° 0 mm 3 mps 761 mmHg 48%
    08:00 +21°C° 0 mm 4 mps 762 mmHg 45%
    09:00 +23°C° 0 mm 4 mps 763 mmHg 42%
    10:00 +26°C° 0 mm 4 mps 762 mmHg 37%
    11:00 +27°C° 0 mm 4 mps 762 mmHg 31%
    12:00 +29°C° 0 mm 4 mps 762 mmHg 26%
    13:00 +29°C° 0 mm 4 mps 761 mmHg 25%
    14:00 +29°C° 0 mm 4 mps 760 mmHg 24%
    15:00 +30°C° 0 mm 4 mps 760 mmHg 23%
    16:00 +28°C° 0 mm 4 mps 760 mmHg 27%
    17:00 +26°C° 0 mm 3 mps 760 mmHg 30%
    18:00 +24°C° 0 mm 3 mps 760 mmHg 34%
    19:00 +22°C° 0 mm 3 mps 760 mmHg 34%
    20:00 +22°C° 0 mm 3 mps 761 mmHg 35%
    21:00 +21°C° 0 mm 3 mps 761 mmHg 35%
    22:00 +20°C° 0 mm 3 mps 761 mmHg 35%
    23:00 +20°C° 0 mm 3 mps 761 mmHg 35%
    Show more